Regional Weather Roundup
Issued by NWS

Home | Current Version | Previous Version | Graphics & Text | Print | Product List | Glossary On
Versions: 1 2 3 4 5 6 7 8 9 10 11 12 13 14 15 16 17 18 19 20 21 22 23 24 25 26 27 28 29 30 31 32 33 34 35 36 37 38 39 40 41 42 43 44 45 46 47 48 49 50
000
ASUS43 KDTX 260901
RWRMI
MICHIGAN HOURLY REGIONAL WEATHER ROUNDUP
NATIONAL WEATHER SERVICE DETROIT/PONTIAC MI
500 AM EDT TUE JUL 26 2016

NOTE: "FAIR" INDICATES FEW OR NO CLOUDS BELOW 12,000 FEET WITH NO
SIGNIFICANT WEATHER AND/OR OBSTRUCTION TO VISIBILITY.

MIZ047>049-052>055-059>063-066>070-074>076-081>083-261000-
SOUTHEAST LOWER MICHIGAN

CITY           SKY/WX    TMP DP  RH WIND       PRES   REMARKS
ADRIAN         CLEAR     65  63  93 N3        30.03S
ALMA           CLEAR     60  60 100 CALM      30.04S
ANN ARBOR      CLEAR     60  59  96 NW6       30.02S
BAD AXE        PTCLDY    56  55  97 CALM      30.02S
CARO           CLEAR     58  58  97 CALM      30.02S
DETROIT CITY   CLEAR     69  63  81 CALM      30.02S
DETROIT        PTCLDY    68  60  75 N5        30.02S
FLINT          CLEAR     62  58  86 CALM      30.03S
GROSSE ILE     CLEAR     67  61  81 CALM      30.01S
HILLSDALE      CLEAR     62  60  92 CALM      30.04S
HOWELL         CLEAR     62  60  95 CALM      30.04S

CITY           SKY/WX    TMP DP  RH WIND       PRES   REMARKS
JACKSON        CLEAR     61  61 100 CALM      30.04S
LAMBERTVILLE   CLEAR     68  63  84 CALM      30.02S
LANSING        CLEAR     63  60  90 CALM      30.04S
LAPEER         FAIR      58  57  97 CALM      30.04R
MASON          CLEAR     62  61  95 CALM      30.04F
MONROE         PTCLDY    66  63  90 N10       30.01S
MT. CLEMENS    CLEAR     64  62  94 W2        30.00S
PONTIAC        CLEAR     63  60  90 CALM      30.03R
PORT HURON     PTCLDY    59  59 100 NW3       30.02S
TRI CITIES     CLEAR     65  61  87 CALM      30.03S
MIDLAND        FAIR      59  59 100 CALM      30.02S
TROY           CLEAR     70  61  74 CALM      30.05S
SAGINAW HB     CLEAR     63  59  88 CALM      30.02R
$$
MIZ043>046-050>051-056>058-064>065-071>073-077>080-261000-
SOUTHWEST LOWER MICHIGAN

CITY           SKY/WX    TMP DP  RH WIND       PRES   REMARKS
BATTLE CREEK   CLEAR     62  62 100 CALM      30.05S
BENTON HARBOR  CLEAR     63  61  93 CALM      30.04R
BIG RAPIDS     CLEAR     60  60 100 CALM      30.04R
COLDWATER      CLEAR     63  63 100 CALM      30.04S
FREMONT        FAIR      62  62 100 CALM      30.03R FOG
HOLLAND        CLEAR     63  61  93 CALM      30.04S FOG
GRAND RAPIDS   CLEAR     63  61  93 CALM      30.04S
IONIA          FAIR      64  61  90 W3        30.04R
KALAMAZOO      CLEAR     63  60  90 CALM      30.05S
LUDINGTON      PTCLDY    62  62 100 CALM      30.02R FOG
MARSHALL       CLEAR     62  61  98 CALM      30.04S FOG
MOUNT PLEASANT CLEAR     61  60  97 CALM      30.03S
MUSKEGON       CLEAR     65  63  93 CALM      30.03S
SOUTH HAVEN    CLEAR     61  61 100 CALM      30.04S
$$
MIZ016>042-261000-
NORTHERN LOWER MICHIGAN

CITY           SKY/WX    TMP DP  RH WIND       PRES   REMARKS
ALPENA         CLEAR     63  55  75 W3        30.00S
BEAVER ISLAND  CLEAR     59  58  96 CALM      30.00S
BELLAIRE       CLEAR     57  55  95 CALM      30.01S FOG
CADILLAC       CLEAR     56  54  91 CALM      30.03S
CHARLEVOIX     CLEAR     64  61  93 CALM      30.03S
FRANKFORT      CLEAR     60  58  92 CALM      30.01S
GAYLORD        CLEAR     58  55  90 CALM      30.03F
GRAYLING       PTCLDY    52  51  97 CALM      30.04S FOG
HARBOR SPRINGS CLEAR     60  58  96 CALM      30.00S
HOUGHTON LAKE  CLEAR     56  55  97 CALM      30.04S
MANISTEE       FOG       59  59 100 CALM      30.01S VSB 3/4
OSCODA         PTCLDY    61  55  82 NW6       30.00S
ROGERS CITY    CLEAR     62  55  77 SW6       30.00S
TRAVERSE CITY  CLEAR     63  59  87 CALM      30.00R
$$
MIZ007>008-015-261000-
EASTERN UPPER MICHIGAN

CITY           SKY/WX    TMP DP  RH WIND       PRES   REMARKS
KINROSS        CLEAR     60  58  92 CALM      29.99S
MACKINAC ISLAN CLEAR     67  60  78 SW8       29.99S
S. S. MARIE    CLEAR     58  56  93 CALM      29.97S
MUNISING         N/A     64  60  87 SE7       29.98R
$$
MIZ004>006-011>014-085-261000-
CENTRAL UPPER MICHIGAN

CITY           SKY/WX    TMP DP  RH WIND       PRES   REMARKS
ESCANABA       CLEAR     61  57  88 W5        29.99R
SAWYER-GWINN   CLEAR     57  55  92 SW3       30.02R FOG
$$
MIZ001>003-009>011-084-261000-
WESTERN UPPER MICHIGAN

CITY           SKY/WX    TMP DP  RH WIND       PRES   REMARKS
IRON MOUNTAIN  CLEAR     59  54  83 CALM      30.02S
HOUGHTON       PTCLDY    68  59  73 W7        29.97S
COPPER HARBOR    N/A     71  59  65 N3        29.94S
IRONWOOD       CLEAR     61  61 100 CALM      30.00F
$$

ABBREVIATIONS USED IN REMARKS
   TC - TEMPERATURE IN CELSIUS
  WCI - WIND CHILL INDEX
   HX - HEAT INDEX
  VSB - VISIBILITY




USA.gov is the U.S. government's official web portal to all federal, state and local government web resources and services.